When you browse on this site, cookies collect data to enhance your experience and personalize the content and advertising you see.
Visit our Privacy Policy to learn more. By continuing to use the site, you agree to this use of cookies and data.
  • In Spain
  • List of Countries
  • For 7 days
  • Water Temperature
  • Weather Map
  • Weather Widgets
  • user-avatar
    Login

    Hourly Weather Saurimo

    Today, 23 January, Thursday

    Time Temperature Precipitation Wind Pressure Humidity
    00:00 +21°C° 1.5 mm 2 mps 669 mmHg 97%
    01:00 +22°C° 0 mm 1 mps 669 mmHg 96%
    02:00 +21°C° 0.2 mm 1 mps 669 mmHg 96%
    03:00 +21°C° 0.2 mm 1 mps 668 mmHg 96%
    04:00 +21°C° 0.2 mm 1 mps 668 mmHg 96%
    05:00 +21°C° 0 mm 1 mps 669 mmHg 95%
    06:00 +21°C° 0 mm 1 mps 669 mmHg 94%
    07:00 +21°C° 0 mm 1 mps 670 mmHg 94%
    08:00 +23°C° 0.2 mm 1 mps 670 mmHg 91%
    09:00 +24°C° 0.2 mm 2 mps 671 mmHg 89%
    10:00 +25°C° 0.2 mm 2 mps 671 mmHg 86%
    11:00 +25°C° 1.7 mm 3 mps 670 mmHg 83%
    12:00 +26°C° 1.7 mm 3 mps 669 mmHg 80%
    13:00 +27°C° 1.7 mm 3 mps 669 mmHg 77%
    14:00 +27°C° 0.5 mm 3 mps 668 mmHg 77%
    15:00 +27°C° 0.5 mm 2 mps 668 mmHg 77%
    16:00 +27°C° 0.5 mm 2 mps 668 mmHg 78%
    17:00 +25°C° 0.7 mm 1 mps 668 mmHg 83%
    18:00 +24°C° 0.7 mm 1 mps 668 mmHg 88%
    19:00 +22°C° 0.7 mm 1 mps 669 mmHg 93%
    20:00 +22°C° 0.6 mm 1 mps 669 mmHg 93%
    21:00 +22°C° 0.6 mm 1 mps 669 mmHg 94%
    22:00 +21°C° 0.6 mm 1 mps 670 mmHg 95%
    23:00 +21°C° 0.2 mm 1 mps 669 mmHg 96%

    Tomorrow, 24 January, Friday

    Time Temperature Precipitation Wind Pressure Humidity
    00:00 +21°C° 0.2 mm 1 mps 669 mmHg 96%
    01:00 +21°C° 0.2 mm 1 mps 669 mmHg 97%
    02:00 +21°C° 0 mm 1 mps 669 mmHg 97%
    03:00 +21°C° 0 mm 1 mps 669 mmHg 97%
    04:00 +20°C° 0 mm 1 mps 668 mmHg 97%
    05:00 +21°C° 0 mm 1 mps 669 mmHg 96%
    06:00 +20°C° 0 mm 2 mps 670 mmHg 94%
    07:00 +21°C° 0 mm 2 mps 670 mmHg 93%
    08:00 +23°C° 0.1 mm 2 mps 671 mmHg 88%
    09:00 +24°C° 0.1 mm 3 mps 671 mmHg 82%
    10:00 +25°C° 0.1 mm 3 mps 671 mmHg 77%
    11:00 +26°C° 0.4 mm 3 mps 670 mmHg 75%
    12:00 +27°C° 0.4 mm 4 mps 670 mmHg 72%
    13:00 +28°C° 0.4 mm 4 mps 669 mmHg 70%
    14:00 +28°C° 0.9 mm 4 mps 669 mmHg 74%
    15:00 +27°C° 0.9 mm 3 mps 669 mmHg 78%
    16:00 +27°C° 0.9 mm 3 mps 668 mmHg 82%
    17:00 +25°C° 0.4 mm 2 mps 668 mmHg 86%
    18:00 +24°C° 0.4 mm 2 mps 669 mmHg 89%
    19:00 +21°C° 0.4 mm 2 mps 669 mmHg 93%
    20:00 +21°C° 0.2 mm 2 mps 669 mmHg 94%
    21:00 +20°C° 0.2 mm 2 mps 670 mmHg 95%
    22:00 +20°C° 0.2 mm 2 mps 670 mmHg 95%
    23:00 +20°C° 0 mm 2 mps 670 mmHg 95%

    Day after tomorrow, 25 January, Saturday

    Time Temperature Precipitation Wind Pressure Humidity
    00:00 +20°C° 0 mm 2 mps 670 mmHg 96%
    01:00 +20°C° 0 mm 2 mps 670 mmHg 96%
    02:00 +21°C° 0 mm 1 mps 669 mmHg 96%
    03:00 +20°C° 0 mm 1 mps 669 mmHg 96%
    04:00 +20°C° 0 mm 1 mps 669 mmHg 96%
    05:00 +21°C° 0 mm 1 mps 669 mmHg 95%
    06:00 +21°C° 0 mm 1 mps 670 mmHg 94%
    07:00 +21°C° 0 mm 2 mps 670 mmHg 93%
    08:00 +23°C° 0 mm 2 mps 671 mmHg 86%
    09:00 +24°C° 0 mm 3 mps 671 mmHg 79%
    10:00 +26°C° 0 mm 3 mps 672 mmHg 71%
    11:00 +27°C° 0 mm 3 mps 671 mmHg 68%
    12:00 +27°C° 0 mm 3 mps 670 mmHg 65%
    13:00 +28°C° 0 mm 3 mps 670 mmHg 62%
    14:00 +28°C° 0.1 mm 3 mps 669 mmHg 64%
    15:00 +28°C° 0.1 mm 2 mps 669 mmHg 66%
    16:00 +29°C° 0.1 mm 2 mps 669 mmHg 68%
    17:00 +27°C° 0.1 mm 2 mps 669 mmHg 72%
    18:00 +25°C° 0.1 mm 2 mps 669 mmHg 76%
    19:00 +23°C° 0.1 mm 2 mps 669 mmHg 79%
    20:00 +21°C° 0 mm 2 mps 669 mmHg 79%
    21:00 +20°C° 0 mm 2 mps 669 mmHg 79%
    22:00 +19°C° 0 mm 2 mps 670 mmHg 78%
    23:00 +20°C° 0 mm 2 mps 670 mmHg 79%

    26 January, Sunday

    Time Temperature Precipitation Wind Pressure Humidity
    00:00 +20°C° 0 mm 2 mps 669 mmHg 80%
    01:00 +21°C° 0 mm 1 mps 669 mmHg 81%
    02:00 +20°C° 0 mm 1 mps 669 mmHg 83%
    03:00 +20°C° 0 mm 1 mps 669 mmHg 85%
    04:00 +20°C° 0 mm 1 mps 669 mmHg 86%
    05:00 +19°C° 0 mm 2 mps 669 mmHg 86%
    06:00 +20°C° 0 mm 2 mps 670 mmHg 85%
    07:00 +20°C° 0 mm 2 mps 670 mmHg 84%
    08:00 +22°C° 0 mm 3 mps 670 mmHg 76%
    09:00 +25°C° 0 mm 3 mps 671 mmHg 69%
    10:00 +27°C° 0 mm 3 mps 671 mmHg 62%
    11:00 +28°C° 0 mm 3 mps 671 mmHg 60%
    12:00 +29°C° 0 mm 4 mps 670 mmHg 58%
    13:00 +29°C° 0 mm 4 mps 670 mmHg 56%
    14:00 +29°C° 0 mm 3 mps 669 mmHg 57%
    15:00 +29°C° 0 mm 3 mps 669 mmHg 59%
    16:00 +29°C° 0 mm 2 mps 669 mmHg 61%
    17:00 +27°C° 0.2 mm 2 mps 669 mmHg 70%
    18:00 +25°C° 0.2 mm 2 mps 669 mmHg 79%
    19:00 +23°C° 0.2 mm 1 mps 669 mmHg 88%
    20:00 +22°C° 0 mm 1 mps 669 mmHg 89%
    21:00 +22°C° 0 mm 1 mps 670 mmHg 90%
    22:00 +21°C° 0 mm 1 mps 670 mmHg 91%
    23:00 +21°C° 0 mm 1 mps 670 mmHg 90%

    27 January, Monday

    Time Temperature Precipitation Wind Pressure Humidity
    00:00 +21°C° 0 mm 1 mps 670 mmHg 89%
    01:00 +21°C° 0 mm 1 mps 669 mmHg 88%
    02:00 +20°C° 0.3 mm 1 mps 669 mmHg 90%
    03:00 +20°C° 0.3 mm 1 mps 669 mmHg 92%
    04:00 +20°C° 0.3 mm 1 mps 669 mmHg 94%
    05:00 +20°C° 0.6 mm 1 mps 669 mmHg 94%
    06:00 +19°C° 0.6 mm 2 mps 670 mmHg 95%
    07:00 +20°C° 0.6 mm 2 mps 670 mmHg 95%
    08:00 +21°C° 0 mm 2 mps 671 mmHg 90%
    09:00 +23°C° 0 mm 2 mps 671 mmHg 85%
    10:00 +22°C° 0 mm 3 mps 671 mmHg 80%
    11:00 +25°C° 0 mm 3 mps 671 mmHg 72%
    12:00 +27°C° 0 mm 3 mps 671 mmHg 64%
    13:00 +29°C° 0 mm 3 mps 671 mmHg 56%
    14:00 +29°C° 0.1 mm 3 mps 670 mmHg 58%
    15:00 +29°C° 0.1 mm 3 mps 670 mmHg 60%
    16:00 +29°C° 0.1 mm 2 mps 669 mmHg 62%
    17:00 +26°C° 0.3 mm 2 mps 669 mmHg 72%
    18:00 +24°C° 0.3 mm 2 mps 669 mmHg 82%
    19:00 +22°C° 0.3 mm 1 mps 669 mmHg 91%
    20:00 +22°C° 0.3 mm 1 mps 669 mmHg 92%
    21:00 +22°C° 0.3 mm 1 mps 670 mmHg 93%
    22:00 +21°C° 0.3 mm 1 mps 670 mmHg 94%
    23:00 +21°C° 0.5 mm 1 mps 670 mmHg 94%

    28 January, Tuesday

    Time Temperature Precipitation Wind Pressure Humidity
    00:00 +21°C° 0.5 mm 1 mps 670 mmHg 94%
    01:00 +21°C° 0.5 mm 1 mps 669 mmHg 94%
    02:00 +20°C° 0 mm 1 mps 669 mmHg 93%
    03:00 +20°C° 0 mm 1 mps 669 mmHg 91%
    04:00 +20°C° 0 mm 1 mps 669 mmHg 90%
    05:00 +20°C° 0 mm 1 mps 669 mmHg 90%
    06:00 +21°C° 0 mm 1 mps 670 mmHg 90%
    07:00 +21°C° 0 mm 1 mps 670 mmHg 91%
    08:00 +21°C° 0.1 mm 2 mps 670 mmHg 84%
    09:00 +24°C° 0.1 mm 2 mps 671 mmHg 77%
    10:00 +25°C° 0.1 mm 3 mps 671 mmHg 70%
    11:00 +26°C° 0.1 mm 3 mps 671 mmHg 66%
    12:00 +27°C° 0.1 mm 4 mps 670 mmHg 63%
    13:00 +29°C° 0.1 mm 4 mps 670 mmHg 59%
    14:00 +28°C° 0.7 mm 4 mps 669 mmHg 63%
    15:00 +28°C° 0.7 mm 3 mps 669 mmHg 68%
    16:00 +27°C° 0.7 mm 3 mps 668 mmHg 72%
    17:00 +25°C° 0.5 mm 2 mps 668 mmHg 78%
    18:00 +24°C° 0.5 mm 2 mps 668 mmHg 84%
    19:00 +21°C° 0.5 mm 2 mps 668 mmHg 89%
    20:00 +22°C° 0.1 mm 1 mps 668 mmHg 91%
    21:00 +21°C° 0.1 mm 1 mps 669 mmHg 92%
    22:00 +21°C° 0.1 mm 1 mps 669 mmHg 93%
    23:00 +21°C° 0.1 mm 1 mps 669 mmHg 93%
    Show more